www.pogodaiklimat.ru

Погода и климат >> Архив погоды >> Япония >> Титидзима


ПОГОДА на Титидзиме

  • Прогноз погоды на Титидзиме
  • Монитор погоды на Титидзиме

АРХИВ ПОГОДЫ на Титидзиме

Время (UTC), дата Ветер
(напр.,м/с)
 
Видим.   Явления Облачность Т
(С)
Тd
(С)
f
(%)
Тe
(С)
Тes
(С)
Комфортность P
(гПа)
Po
(гПа)
Тmin
(С)
Tmax
(С)
R
(мм)
R24
(мм)
S
(см)
16 18.06 Ю 1 7000 м дымка н/о +25.0 +24.8 99 +35 +35 очень
душно
1011.6 1010.6
17 18.06 ЮВ 2 6000 м в посл. час дождь н/о +24.8 +24.8 100 +35 +35 очень
душно
1011.4 1010.4
18 18.06 З 1 20 км в посл. час дождь {туман} н/о +25.2 +25.0 99 +36 +36 очень
душно
1011.7 1010.7 0.0
19 18.06 Ю 2 16 км слаб. дождь н/о +25.2 +24.5 96 +35 +35 очень
душно
1011.6 1010.6
20 18.06 Ю 3 7000 м слаб. дождь н/о +25.4 +24.4 94 +35 +35 очень
душно
1011.4 1010.5
21 18.06 Ю 6 11 км слаб. дождь н/о +26.0 +25.1 95 +37 +37 очень
душно
1011.8 1010.9
22 18.06 Ю 5 20 км в посл. час дождь н/о +25.8 +25.1 96 +37 +37 очень
душно
1012.0 1011.1
23 18.06 Ю 4 20 км слаб. дождь н/о +25.7 +25.0 96 +37 +37 очень
душно
1011.9 1011.0
00 19.06 Ю 4 20 км в посл. час дождь н/о +26.1 +24.9 93 +37 +37 очень
душно
1012.0 1011.1 +24.6 3
01 19.06 Ю 3 5000 м слаб. дождь н/о +25.6 +24.9 96 +36 +36 очень
душно
1011.4 1010.5
02 19.06 Ю 3 19 км в посл. час дождь н/о +25.9 +24.9 94 +37 +37 очень
душно
1011.1 1010.2
03 19.06 З 2 3600 м слаб. дождь н/о +25.3 +24.6 96 +36 +36 очень
душно
1010.4 1009.5
04 19.06 Ю 2 11 км слаб. дождь н/о +25.9 +25.2 96 +37 +37 очень
душно
1010.0 1009.1
05 19.06 Ю 2 20 км в посл. час дождь н/о +26.8 +25.8 94 +40 +40 очень
душно
1009.7 1008.8
06 19.06 Ю 2 19 км {дождь} н/о +26.7 +25.8 95 +40 +40 очень
душно
1009.4 1008.5 5
07 19.06 Ю 2 20 км слаб. дождь н/о +26.6 +25.6 94 +39 +39 очень
душно
1009.2 1008.3
08 19.06 Ю 2 13 км слаб. дождь н/о +26.4 +25.5 95 +39 +39 очень
душно
1009.3 1008.4
09 19.06 Ю 2 20 км в посл. час дождь н/о +26.4 +25.5 95 +39 +39 очень
душно
1009.4 1008.5
10 19.06 Ю 2 20 км н/о +26.4 +25.5 95 +39 +39 очень
душно
1009.8 1008.9
11 19.06 Ю 2 20 км н/о +26.5 +25.6 95 +39 +39 очень
душно
1009.9 1009.0
12 19.06 Ю 2 20 км {дождь} н/о +26.4 +25.7 96 +39 +39 очень
душно
1010.1 1009.2 +26.9 5
13 19.06 Ю 3 20 км н/о +26.4 +25.7 96 +39 +39 очень
душно
1010.3 1009.4
14 19.06 ЮЗ 2 20 км н/о +26.4 +25.5 95 +39 +39 очень
душно
1009.9 1009.0
15 19.06 ЮЗ 2 20 км н/о +26.3 +25.3 94 +38 +38 очень
душно
1009.4 1008.5
16 19.06 Ю 3 20 км н/о +26.4 +25.2 93 +38 +38 очень
душно
1008.7 1007.8
17 19.06 Ю 5 20 км н/о +26.3 +24.9 92 +38 +38 очень
душно
1008.4 1007.5
18 19.06 Ю 4 20 км н/о +26.2 +24.6 91 +37 +37 очень
душно
1008.7 1007.8
19 19.06 Ю 3 20 км н/о +26.2 +24.6 91 +37 +37 очень
душно
1009.2 1008.3
20 19.06 Ю 3 20 км в посл. час дождь н/о +26.2 +25.0 93 +37 +37 очень
душно
1009.3 1008.4
21 19.06 Ю 5 20 км в посл. час дождь н/о +26.4 +25.0 92 +38 +38 очень
душно
1009.4 1008.5
22 19.06 Ю 6 20 км н/о +26.8 +24.7 88 +38 +38 очень
душно
1009.1 1008.2
23 19.06 Ю 5 20 км н/о +27.1 +24.9 88 +39 +39 очень
душно
1008.9 1008.0
00 20.06 Ю 5 20 км {дождь} н/о +26.9 +25.1 90 +39 +39 очень
душно
1008.9 1008.0 +26.0 1
01 20.06 Ю 5 20 км н/о +27.3 +25.1 88 +39 +39 очень
душно
1009.0 1008.1
02 20.06 Ю 3 20 км н/о +27.4 +25.2 88 +40 +40 очень
душно
1009.0 1008.1
03 20.06 ЮВ 3 7000 м слаб. дождь н/о +26.5 +25.3 93 +38 +38 очень
душно
1009.1 1008.2
04 20.06 ЮЗ 2 16 км в посл. час дождь н/о +26.7 +25.1 91 +38 +38 очень
душно
1008.8 1007.9
05 20.06 Ю 2 12 км слаб. дождь н/о +26.8 +25.6 93 +39 +39 очень
душно
1008.8 1007.9
06 20.06 Ю 2 11 км слаб. дождь н/о +26.8 +25.6 93 +39 +39 очень
душно
1008.8 1007.9 0.0
07 20.06 Ю 2 9000 м слаб. дождь н/о +26.4 +25.5 95 +39 +39 очень
душно
1008.9 1008.0
08 20.06 Ю 2 9000 м в посл. час дождь н/о +26.3 +25.8 97 +39 +39 очень
душно
1009.3 1008.4
09 20.06 Ю 2 9000 м дымка {дождь} н/о +26.3 +25.8 97 +39 +39 очень
душно
1009.5 1008.6
10 20.06 ЮЗ 3 12 км слаб. дождь н/о +26.4 +25.9 97 +39 +39 очень
душно
1009.7 1008.8
11 20.06 ЮЗ 3 12 км слаб. дождь н/о +26.5 +25.8 96 +39 +39 очень
душно
1010.3 1009.4
12 20.06 ЮЗ 2 11 км в посл. час дождь н/о +26.5 +26.0 97 +40 +40 очень
душно
1010.7 1009.8 +27.7 0.0
13 20.06 ЮЗ 2 10 км в посл. час дождь н/о +26.5 +26.0 97 +40 +40 очень
душно
1011.1 1010.2
15 20.06 ЮЗ 3 9000 м слаб. дождь н/о +26.4 +26.1 98 +39 +39 очень
душно
1010.6 1009.7
16 20.06 ЮЗ 2 10 км в посл. час дождь н/о +26.4 +25.9 97 +39 +39 очень
душно
1010.2 1009.3
17 20.06 ЮЗ 2 12 км слаб. дождь н/о +25.8 +24.6 93 +36 +36 очень
душно
1010.2 1009.3
18 20.06 Ю 3 11 км {дождь} н/о +26.5 +26.0 97 +40 +40 очень
душно
1010.1 1009.2 2
19 20.06 Ю 4 14 км н/о +25.9 +24.9 94 +37 +37 очень
душно
1010.1 1009.2
20 20.06 Ю 2 14 км н/о +26.1 +25.1 94 +37 +37 очень
душно
1010.6 1009.7
21 20.06 Ю 3 15 км н/о +26.2 +25.2 94 +38 +38 очень
душно
1010.8 1009.9
22 20.06 Ю 4 20 км в посл. час дождь н/о +26.6 +25.0 91 +38 +38 очень
душно
1011.1 1010.2
23 20.06 Ю 5 20 км н/о +26.4 +24.8 91 +38 +38 очень
душно
1011.1 1010.2
00 21.06 Ю 5 20 км {дождь} н/о +27.0 +25.0 89 +39 +39 очень
душно
1011.1 1010.2 +25.6 2
01 21.06 Ю 4 20 км слаб. дождь н/о +27.1 +24.8 87 +39 +39 очень
душно
1011.0 1010.1
02 21.06 Ю 5 20 км в посл. час дождь н/о +27.4 +24.5 84 +39 +39 очень
душно
1010.8 1009.9
03 21.06 Ю 4 20 км {дождь} н/о +27.3 +24.6 85 +39 +39 очень
душно
1010.4 1009.5
04 21.06 Ю 4 20 км н/о +27.6 +24.7 84 +39 +39 очень
душно
1010.0 1009.1
05 21.06 Ю 2 20 км н/о +27.3 +24.8 86 +39 +39 очень
душно
1009.7 1008.8
06 21.06 Ю 4 20 км {дождь} н/о +27.2 +25.0 88 +39 +39 очень
душно
1009.6 1008.7 0.0
07 21.06 Ю 3 20 км н/о +26.9 +25.3 91 +39 +39 очень
душно
1009.8 1008.9
08 21.06 Ю 3 18 км н/о +26.7 +25.5 93 +39 +39 очень
душно
1010.3 1009.4
09 21.06 Ю 2 20 км н/о +26.8 +25.8 94 +40 +40 очень
душно
1010.9 1010.0
10 21.06 Ю 2 19 км в посл. час дождь н/о +26.6 +25.6 94 +39 +39 очень
душно
1011.6 1010.7
11 21.06 Ю 2 20 км н/о +26.7 +25.7 94 +39 +39 очень
душно
1011.9 1011.0
12 21.06 Ю 2 20 км {дождь} н/о +26.7 +25.5 93 +39 +39 очень
душно
1012.4 1011.5 +28.0 0.0
13 21.06 ЮЗ 2 20 км н/о +26.9 +25.7 93 +40 +40 очень
душно
1012.5 1011.6
15 21.06 Ю 2 н/о н/о +27.1 +25.9 93 +40 +40 очень
душно
1011.3 1010.4
16 21.06 Ю 5 н/о н/о +27.2 +25.8 92 +40 +40 очень
душно
1011.1 1010.2
17 21.06 Ю 4 6000 м слаб. дождь н/о +24.9 +24.4 97 +35 +35 очень
душно
1011.5 1010.5
18 21.06 Ю 3 16 км в посл. час дождь н/о +25.0 +24.3 96 +35 +35 очень
душно
1010.9 1009.9 10
19 21.06 Ю 2 20 км н/о +25.0 +24.2 95 +34 +34 очень
душно
1010.9 1009.9
20 21.06 Ю 2 20 км в посл. час дождь н/о +25.8 +23.9 89 +35 +35 очень
душно
1010.8 1009.9
21 21.06 Ю 3 20 км в посл. час дождь н/о +26.3 +24.7 91 +37 +37 очень
душно
1011.0 1010.1
22 21.06 Ю 3 20 км н/о +26.7 +25.3 92 +39 +39 очень
душно
1011.3 1010.4
23 21.06 Ю 3 20 км н/о +27.6 +25.8 90 +41 +41 опасность
перегрева
1011.0 1010.1
00 22.06 Ю 4 20 км {дождь} н/о +28.1 +25.7 87 +42 +42 опасность
перегрева
1010.8 1009.9 +24.3 10
01 22.06 Ю 6 20 км в посл. час дождь н/о +28.4 +25.4 84 +42 +42 опасность
перегрева
1010.6 1009.7
02 22.06 Ю 4 20 км в посл. час дождь н/о +28.5 +25.5 84 +42 +42 опасность
перегрева
1010.8 1009.9
03 22.06 Ю 5 20 км {дождь} н/о +28.3 +25.5 85 +42 +42 опасность
перегрева
1010.5 1009.6
04 22.06 Ю 5 20 км н/о +28.8 +26.0 85 +43 +43 опасность
перегрева
1010.3 1009.4
05 22.06 Ю 5 20 км н/о +28.5 +25.9 86 +43 +43 опасность
перегрева
1010.0 1009.1
06 22.06 Ю 6 20 км {дождь} н/о +28.3 +25.9 87 +42 +42 опасность
перегрева
1009.8 1008.9 0.0
08 22.06 Ю 4 20 км н/о +27.8 +26.0 90 +42 +42 опасность
перегрева
1010.3 1009.4
09 22.06 Ю 4 20 км н/о +27.7 +25.9 90 +41 +41 опасность
перегрева
1010.8 1009.9
10 22.06 Ю 5 20 км н/о +27.7 +25.7 89 +41 +41 опасность
перегрева
1011.0 1010.1
11 22.06 Ю 6 20 км н/о +27.8 +25.6 88 +41 +41 опасность
перегрева
1011.2 1010.3
12 22.06 Ю 5 20 км н/о +27.5 +25.9 91 +41 +41 опасность
перегрева
1011.6 1010.7 +29.0 0.0
13 22.06 Ю 5 20 км н/о +27.3 +25.9 92 +41 +41 опасность
перегрева
1011.7 1010.8
14 22.06 Ю 5 20 км н/о +27.1 +25.7 92 +40 +40 очень
душно
1011.2 1010.3
15 22.06 Ю 5 20 км н/о +27.1 +25.7 92 +40 +40 очень
душно
1010.6 1009.7
16 22.06 Ю 5 20 км н/о +27.3 +25.9 92 +41 +41 опасность
перегрева
1010.2 1009.3
17 22.06 Ю 5 20 км н/о +27.2 +26.2 94 +41 +41 опасность
перегрева
1010.1 1009.2
18 22.06 Ю 5 20 км н/о +27.1 +25.9 93 +40 +40 очень
душно
1010.4 1009.5
19 22.06 Ю 5 20 км н/о +27.1 +26.1 94 +41 +41 опасность
перегрева
1010.6 1009.7
20 22.06 Ю 5 20 км н/о +27.2 +26.2 94 +41 +41 опасность
перегрева
1011.0 1010.1
21 22.06 Ю 5 20 км н/о +27.6 +26.0 91 +41 +41 опасность
перегрева
1011.6 1010.7
22 22.06 Ю 5 20 км в посл. час дождь н/о +27.9 +26.1 90 +42 +42 опасность
перегрева
1011.8 1010.9
23 22.06 Ю 3 20 км н/о +28.3 +26.3 89 +43 +43 опасность
перегрева
1012.0 1011.1
00 23.06 Ю 5 20 км {дождь} н/о +29.2 +25.8 82 +44 +44 опасность
перегрева
1011.6 1010.7 +27.0 0.0
01 23.06 Ю 5 20 км н/о +29.4 +25.8 81 +44 +44 опасность
перегрева
1011.2 1010.3
02 23.06 Ю 5 20 км н/о +28.9 +25.7 83 +43 +43 опасность
перегрева
1011.4 1010.5
03 23.06 Ю 5 17 км н/о +28.8 +25.8 84 +43 +43 опасность
перегрева
1011.0 1010.1
04 23.06 Ю 7 20 км н/о +29.6 +26.2 82 +45 +45 опасность
перегрева
1010.6 1009.7
05 23.06 Ю 6 20 км н/о +29.2 +25.8 82 +44 +44 опасность
перегрева
1010.6 1009.7
06 23.06 Ю 6 20 км н/о +29.1 +26.1 84 +44 +44 опасность
перегрева
1010.5 1009.6
07 23.06 Ю 5 18 км н/о +29.0 +26.2 85 +44 +44 опасность
перегрева
1010.8 1009.9
08 23.06 Ю 5 20 км н/о +28.6 +26.0 86 +43 +43 опасность
перегрева
1011.1 1010.2
09 23.06 Ю 5 18 км н/о +28.0 +26.0 89 +42 +42 опасность
перегрева
1011.7 1010.8
10 23.06 Ю 4 17 км н/о +27.7 +26.1 91 +42 +42 опасность
перегрева
1012.5 1011.6
11 23.06 Ю 4 15 км н/о +27.5 +26.1 92 +41 +41 опасность
перегрева
1012.8 1011.9
12 23.06 Ю 4 18 км н/о +27.7 +25.9 90 +41 +41 опасность
перегрева
1013.1 1012.2 +29.8
13 23.06 Ю 3 19 км н/о +27.5 +25.7 90 +41 +41 опасность
перегрева
1013.4 1012.5
14 23.06 Ю 3 н/о н/о +27.4 +25.8 91 +41 +41 опасность
перегрева
1013.0 1012.1
15 23.06 Ю 3 18 км н/о +27.2 +25.6 91 +40 +40 очень
душно
1012.9 1012.0
16 23.06 Ю 4 20 км н/о +27.5 +25.5 89 +40 +40 очень
душно
1012.6 1011.7
17 23.06 Ю 4 20 км н/о +27.4 +25.4 89 +40 +40 очень
душно
1012.6 1011.7
18 23.06 Ю 4 18 км н/о +27.3 +25.5 90 +40 +40 очень
душно
1012.8 1011.9
19 23.06 Ю 5 20 км н/о +27.4 +25.8 91 +41 +41 опасность
перегрева
1013.2 1012.3
20 23.06 Ю 4 20 км н/о +27.3 +25.5 90 +40 +40 очень
душно
1013.5 1012.6
21 23.06 Ю 5 20 км н/о +27.5 +25.5 89 +40 +40 очень
душно
1014.1 1013.2
22 23.06 Ю 4 20 км н/о +28.5 +25.7 85 +42 +42 опасность
перегрева
1014.6 1013.7
23 23.06 Ю 5 18 км н/о +28.4 +25.2 83 +41 +41 опасность
перегрева
1015.2 1014.3
00 24.06 Ю 5 17 км н/о +28.3 +25.3 84 +41 +41 опасность
перегрева
1014.9 1014.0 +27.1
02 24.06 Ю 6 н/о н/о +29.6 +25.8 80 +44 +44 опасность
перегрева
1014.2 1013.3
03 24.06 Ю 6 20 км н/о +29.5 +25.5 79 +43 +43 опасность
перегрева
1014.5 1013.6
04 24.06 Ю 6 20 км н/о +29.4 +25.8 81 +44 +44 опасность
перегрева
1014.9 1014.0
05 24.06 Ю 5 20 км н/о +29.0 +25.8 83 +43 +43 опасность
перегрева
1014.9 1014.0
06 24.06 Ю 5 20 км н/о +29.3 +26.1 83 +44 +44 опасность
перегрева
1014.7 1013.8
07 24.06 Ю 4 20 км н/о +28.7 +25.9 85 +43 +43 опасность
перегрева
1015.0 1014.1
08 24.06 Ю 4 20 км н/о +28.7 +26.1 86 +43 +43 опасность
перегрева
1015.0 1014.1
09 24.06 Ю 3 20 км н/о +28.2 +26.0 88 +42 +42 опасность
перегрева
1015.4 1014.5
10 24.06 Ю 2 20 км н/о +28.0 +26.0 89 +42 +42 опасность
перегрева
1015.9 1015.0
11 24.06 Ю 2 20 км н/о +27.9 +25.9 89 +42 +42 опасность
перегрева
1016.2 1015.3
12 24.06 Ю 2 20 км н/о +27.9 +25.7 88 +41 +41 опасность
перегрева
1016.5 1015.6 +29.9
13 24.06 Ю 2 н/о н/о +27.6 +25.6 89 +41 +41 опасность
перегрева
1016.6 1015.7
14 24.06 Ю 3 20 км н/о +27.4 +25.6 90 +40 +40 очень
душно
1016.5 1015.6
15 24.06 Ю 3 20 км н/о +27.6 +26.2 92 +42 +42 опасность
перегрева
1016.6 1015.7
16 24.06 Ю 2 20 км н/о +27.5 +25.9 91 +41 +41 опасность
перегрева
1016.4 1015.5
17 24.06 Ю 2 20 км н/о +27.4 +25.8 91 +41 +41 опасность
перегрева
1016.3 1015.4
18 24.06 Ю 2 20 км н/о +27.4 +26.0 92 +41 +41 опасность
перегрева
1016.5 1015.6
19 24.06 Ю 2 20 км н/о +26.4 +25.2 93 +38 +38 очень
душно
1016.8 1015.8
20 24.06 ЮЗ 1 19 км в посл. час дождь н/о +25.9 +24.5 92 +36 +36 очень
душно
1017.1 1016.1
21 24.06 Ю 2 19 км {дождь} н/о +26.5 +24.5 89 +37 +37 очень
душно
1017.6 1016.6
22 24.06 В 1 20 км в посл. час дождь н/о +26.6 +25.0 91 +38 +38 очень
душно
1017.8 1016.8
23 24.06 ЮВ 2 19 км н/о +28.0 +25.8 88 +42 +42 опасность
перегрева
1017.5 1016.6
00 25.06 Ю 3 20 км {дождь} н/о +29.2 +25.6 81 +43 +43 опасность
перегрева
1017.6 1016.7 +25.5 1
01 25.06 Ю 3 20 км н/о +30.2 +26.2 79 +46 +46 опасность
перегрева
1017.5 1016.6
02 25.06 Ю 3 20 км н/о +30.3 +25.6 76 +45 +45 опасность
перегрева
1017.2 1016.3
03 25.06 Ю 4 20 км н/о +30.1 +26.1 79 +45 +45 опасность
перегрева
1016.9 1016.0
04 25.06 Ю 3 20 км н/о +29.9 +25.0 75 +43 +43 опасность
перегрева
1016.8 1015.9
05 25.06 ЮЗ 2 20 км н/о +30.1 +25.0 74 +43 +43 опасность
перегрева
1016.6 1015.7
06 25.06 Ю 2 20 км н/о +30.5 +26.4 79 +47 +47 опасность
перегрева
1016.3 1015.4
07 25.06 С 2 20 км н/о +29.7 +25.9 80 +44 +44 опасность
перегрева
1016.3 1015.4
08 25.06 Ю 1 20 км н/о +28.4 +25.6 85 +42 +42 опасность
перегрева
1016.4 1015.5
09 25.06 ЮВ 2 20 км н/о +27.8 +25.8 89 +41 +41 опасность
перегрева
1016.6 1015.7
10 25.06 ЮВ 2 20 км н/о +27.3 +25.7 91 +40 +40 очень
душно
1017.0 1016.1
11 25.06 В 1 20 км н/о +26.8 +25.6 93 +39 +39 очень
душно
1018.1 1017.1
12 25.06 ЮВ 2 20 км н/о +26.8 +25.0 90 +39 +39 очень
душно
1018.3 1017.3 +30.9
13 25.06 СЗ 2 20 км н/о +26.3 +24.9 92 +38 +38 очень
душно
1018.5 1017.5
14 25.06 СЗ 1 20 км н/о +26.2 +25.2 94 +38 +38 очень
душно
1018.4 1017.4
15 25.06 СЗ 1 20 км н/о +26.0 +25.1 95 +37 +37 очень
душно
1017.6 1016.6
16 25.06 штиль 0 20 км н/о +26.0 +25.1 95 +37 +37 очень
душно
1017.1 1016.1
17 25.06 СЗ 1 20 км н/о +25.6 +24.9 96 +36 +36 очень
душно
1016.5 1015.5

 

Местоположение метеостанции Титидзима (Япония): широта 27.08 долгота 142.20 высота над уровнем моря 7.9 м.

В архиве по умолчанию представлена погода на Титидзиме за последнюю неделю. Архивные данные за месяц целиком и за предыдущие месяцы, начиная с января 2011 года, Вы можете получить, выбрав интересующий диапазон дат из раскрывающегося списка и нажав кнопку "Ввод!".


*Определитесь, кто Вы:
робот инопланетянин человек

Внимание! Время в таблицах - всемирное. Для получения местного времени необходимо прибавить поправку, которая равна 9 ч.

Смотрите также архив погоды в соседних городах и на ближайших метеорологических станциях:

Погода на Хатидзёдзиме (Япония) (711 км)
Погода на Миякедзиме (Япония) (824 км)
Погода на Осиме (Япония) (894 км)
Погода в Иродзаки (Япония) (895 км)
Погода в Татеяме (Япония) (906 км)
Погода в Кацууре (Япония) (915 км)
Погода в Омаэдзаки (Япония) (919 км)
Погода в Аджиро (Япония) (934 км)
Погода в Сиономисаки (Япония) (940 км)
Погода в Мисиме (Япония) (947 км)

Пояснения к столбцам:

Ветер - указаны скорость ветра в м/с - средняя за 10 мин, порывы в срок и между сроками (в фигурных скобках) и направление, откуда дует ветер: С - северный, СВ - северо-восточный, В - восточный, ЮВ - юго-восточный, Ю - южный, ЮЗ - юго-западный, З - западный, СЗ - северо-западный.
Видимость - горизонтальная дальность видимости в метрах или километрах. При видимости от 1 до 10 км при отсутствии осадков обычно наблюдается дымка, при ухудшении видимости до 1 км и менее - туман. В сухую погоду видимость может ухудшаться дымом, пылью или мглою.
Явления - указаны атмосферные явления, наблюдавшиеся в срок или в последний час перед сроком; фигурными скобками обозначены явления, наблюдавшиеся между сроками (за 1-3 часа до срока); квадратными скобками обозначены град или гололедные отложения с указанием их диаметра в мм.
Облачность - указаны через наклонную черту общая и нижняя облачность в баллах и высота нижней границы облаков в метрах; квадратными скобками обозначены формы облаков: Ci - перистые, Cs - перисто-слоистые, Cc - перисто-кучевые, Ac - высококучевые, As - высокослоистые, Sc - слоисто-кучевые, Ns - слоисто-дождевые, Cu - кучевые, Cb - кучево-дождевые. Подробнее классификацию облаков см. в Атласе облаков (PDF).
T - Температура воздуха - температура, измеренная на высоте 2 м над землей.
Td - Температура точки росы - температура, при понижении до которой содержащийся в воздухе водяной пар достигнет насыщения.
f - Относительная влажность воздуха - влажноcть воздуха, измеренная на высоте 2 м над землей.
Te - Эффективная температура - температура, которую ощущает одетый по сезону человек в тени. Характеристика душности погоды. При расчете учитывается влияние влажности воздуха и скорости ветра на теплоощущения человека.
Tes - Эффективная температура на солнце - температура, которую ощущает человек, с поправкой на солнечный нагрев. Характеристика знойности погоды. Зависит от высоты солнца над горизонтом, облачности и скорости ветра. Ночью, в пасмурную погоду, а также при ветре 12 м/с и более поправка равна нулю.
P - Атмосферное давление - приведенное к уровню моря атмосферное давление.
Po - Атмосферное давление - измеренное на уровне метеостанции атмосферное давление.
Tmin - Минимальная температура - минимум температуры воздуха на высоте 2 м над землей.
Tmax - Максимальная температура - максимум температуры воздуха на высоте 2 м над землей.
R - Количество осадков - Количество выпавших осадков за период времени, мм. При наведении курсора мыши на число - период времени, за который выпало указанное количество осадков.
R24 - Количество осадков - Количество выпавших осадков за 24 часа, мм.
S - Снежный покров - Высота снежного покрова, см. При наведении курсора мыши на число - состояние снежного покрова и степень покрытия местности в баллах.